Miscellaneous Local Product
Issued by NWS Hastings, NE

Home | Current Version | Previous Version | Graphics & Text | Print | Product List | Glossary On
Versions: 1 2 3 4 5 6 7 8 9 10 11 12 13 14 15 16 17 18 19 20 21 22 23 24 25 26 27 28 29 30 31 32 33 34 35 36 37 38 39 40 41 42 43 44 45 46 47 48 49 50
000
AXUS43 KGID 011002
MISGRI

GID CWA HOURLY WEATHER ROUNDUP
NATIONAL WEATHER SERVICE HASTINGS NE
500 AM CDT SAT AUG 01 2015

NOTE: "FAIR" INDICATES FEW OR NO CLOUDS BELOW 12,000 FEET WITH NO
SIGNIFICANT WEATHER AND/OR OBSTRUCTIONS TO VISIBILITY.

...SOUTH CENTRAL NEBRASKA...

CITY           SKY/WX    TMP DP  RH WIND       PRES   REMARKS
GRAND ISLAND   CLOUDY    68  62  81 E12       30.11F
HASTINGS       MOCLDY    67  63  87 N9        30.11R
KEARNEY        CLEAR     64  61  88 NE8       30.09R
ORD            PTCLDY    64  62  93 E6        30.07F
YORK           CLOUDY    64  63  94 CALM      30.09S
AURORA         CLOUDY    65  65  98 NW12G17   30.12R
LEXINGTON      CLEAR     69  58  68 SW7       30.08S
HOLDREGE       PTCLDY    67  63  86 SW6       30.08F
HEBRON         PTCLDY    66  62  89 CALM      30.08R

...NEBRASKA PANHANDLE...

CITY           SKY/WX    TMP DP  RH WIND       PRES   REMARKS
CHADRON        CLEAR     57  53  86 CALM      30.05F
ALLIANCE       CLEAR     59  54  83 S7        30.10F
SCOTTSBLUFF    CLEAR     64  55  72 E8        30.10F
SIDNEY         CLEAR     65  56  72 SW10      30.17S

...WESTERN AND NORTH CENTRAL NEBRASKA...

CITY           SKY/WX    TMP DP  RH WIND       PRES   REMARKS
VALENTINE      CLEAR     67  55  65 E7        30.07F
AINSWORTH      PTCLDY    61  58  90 E12G17    30.08F
ONEILL         DRIZZLE   68  65  90 SW8       30.06F
BROKEN BOW     CLEAR     66  61  84 SE7       30.07F
IMPERIAL       CLEAR     65  58  78 SW6       30.12S
NORTH PLATTE   CLEAR     72  60  66 S12G20    30.09F
MCCOOK         PTCLDY    76  52  43 SE12      30.11F

...EASTERN NEBRASKA...

CITY           SKY/WX    TMP DP  RH WIND       PRES   REMARKS
NORFOLK        PTCLDY    60  58  92 CALM      30.04F
SO SIOUX CITY  CLEAR     65  62  90 CALM      30.03F FOG
TEKAMAH        CLEAR     61  60  97 S6        30.03F
COLUMBUS       PTCLDY    61  55  82 W3        30.06F
ALBION         MOCLDY    63  59  89 CALM      30.09F
OMAHA EPPLEY   PTCLDY    71  67  87 CALM      30.04S
OFFUTT AFB     CLEAR     63  63  98 SE2       30.03F
MILLARD        CLEAR     67  66  96 CALM      30.03F
LINCOLN        MOCLDY    67  63  87 CALM      30.05F
NEBRASKA CITY  CLEAR     66  65  97 CALM      30.05S
BEATRICE       PTCLDY    66  64  91 CALM      30.06S
FALLS CITY     CLEAR     70  68  93 CALM      30.03S

...NORTHERN KANSAS...

CITY           SKY/WX    TMP DP  RH WIND       PRES   REMARKS
GOODLAND       CLEAR     67  61  81 SW13      30.17S
HILL CITY      PTCLDY    72  67  84 W5        30.11F
NORTON         SUNNY     70  61  73 SW5       30.11F
PHILLIPSBURG   CLEAR     72  66  83 W5        30.09S
SMITH CENTER   CLEAR     68  64  88 SE3       30.09R
HAYS           CLEAR     68  61  77 S6        30.11S
RUSSELL        CLEAR     69  68  96 SW7       30.09S
CONCORDIA      PTCLDY    69  66  90 CALM      30.07F
SALINA         CLEAR     70  67  90 S5        30.08R
TOPEKA         CLEAR     71  68  90 CALM      30.05S



USA.gov is the U.S. government's official web portal to all federal, state and local government web resources and services.